TimeCDT,TemperatureF,Dew PointF,Humidity,Sea Level PressureIn,VisibilityMPH,Wind Direction,Wind SpeedMPH,Gust SpeedMPH,PrecipitationIn,Events,Conditions,WindDirDegrees,DateUTC
12:15 AM,69.8,60.8,73,29.87,10.0,SSE,9.2,-,N/A,,Clear,160,2012-10-25 05:15:00
12:35 AM,69.8,60.8,73,29.86,10.0,SSE,9.2,-,N/A,,Clear,160,2012-10-25 05:35:00
12:55 AM,69.8,62.6,78,29.86,10.0,SSE,6.9,-,N/A,,Clear,160,2012-10-25 05:55:00
1:15 AM,69.8,62.6,78,29.86,10.0,South,9.2,-,N/A,,Clear,170,2012-10-25 06:15:00
1:35 AM,69.8,62.6,78,29.86,10.0,South,8.1,-,N/A,,Clear,170,2012-10-25 06:35:00
1:55 AM,69.8,62.6,78,29.85,10.0,South,9.2,-,N/A,,Clear,170,2012-10-25 06:55:00
2:35 AM,69.8,62.6,78,29.85,10.0,South,10.4,-,N/A,,Mostly Cloudy,170,2012-10-25 07:35:00
2:55 AM,69.8,64.4,83,29.84,10.0,South,10.4,18.4,N/A,,Mostly Cloudy,170,2012-10-25 07:55:00
3:15 AM,69.8,62.6,78,29.84,10.0,South,13.8,21.9,N/A,,Overcast,180,2012-10-25 08:15:00
3:35 AM,69.8,62.6,78,29.83,10.0,South,10.4,16.1,N/A,,Overcast,170,2012-10-25 08:35:00
3:55 AM,69.8,62.6,78,29.83,10.0,South,12.7,20.7,N/A,,Overcast,170,2012-10-25 08:55:00
4:15 AM,69.8,62.6,78,29.83,10.0,South,10.4,21.9,N/A,,Overcast,170,2012-10-25 09:15:00
4:35 AM,69.8,62.6,78,29.83,10.0,South,10.4,19.6,N/A,,Mostly Cloudy,170,2012-10-25 09:35:00
4:55 AM,69.8,62.6,78,29.82,10.0,South,10.4,17.3,N/A,,Mostly Cloudy,170,2012-10-25 09:55:00
5:15 AM,69.8,62.6,78,29.83,10.0,South,9.2,-,N/A,,Mostly Cloudy,170,2012-10-25 10:15:00
5:35 AM,69.8,62.6,78,29.84,10.0,South,9.2,-,N/A,,Overcast,180,2012-10-25 10:35:00
5:55 AM,69.8,62.6,78,29.84,10.0,South,10.4,-,N/A,,Overcast,170,2012-10-25 10:55:00
6:15 AM,69.8,62.6,78,29.84,10.0,South,8.1,-,N/A,,Overcast,170,2012-10-25 11:15:00
6:35 AM,69.8,62.6,78,29.85,10.0,South,5.8,-,N/A,,Overcast,170,2012-10-25 11:35:00
6:55 AM,69.8,62.6,78,29.86,10.0,South,6.9,-,N/A,,Overcast,170,2012-10-25 11:55:00
7:15 AM,69.8,62.6,78,29.87,10.0,SSE,6.9,-,N/A,,Overcast,160,2012-10-25 12:15:00
7:35 AM,69.8,62.6,78,29.87,10.0,SSE,5.8,-,N/A,,Overcast,160,2012-10-25 12:35:00
8:35 AM,69.8,62.6,78,29.88,10.0,South,5.8,-,N/A,,Overcast,170,2012-10-25 13:35:00
8:55 AM,69.8,62.6,78,29.89,10.0,South,6.9,-,N/A,,Overcast,170,2012-10-25 13:55:00
9:15 AM,71.6,64.4,78,29.89,10.0,South,5.8,-,N/A,,Overcast,170,2012-10-25 14:15:00
9:35 AM,75.2,64.4,69,29.89,10.0,South,10.4,-,N/A,,Scattered Clouds,180,2012-10-25 14:35:00
9:55 AM,75.2,64.4,69,29.90,10.0,South,10.4,-,N/A,,Scattered Clouds,190,2012-10-25 14:55:00
10:35 AM,77.0,62.6,61,29.91,10.0,South,11.5,17.3,N/A,,Scattered Clouds,190,2012-10-25 15:35:00
10:55 AM,77.0,62.6,61,29.91,10.0,South,10.4,-,N/A,,Clear,170,2012-10-25 15:55:00
11:15 AM,77.0,60.8,57,29.91,10.0,South,9.2,17.3,N/A,,Clear,180,2012-10-25 16:15:00
11:35 AM,80.6,60.8,51,29.91,10.0,South,6.9,-,N/A,,Clear,190,2012-10-25 16:35:00
11:55 AM,80.6,60.8,51,29.91,10.0,SW,9.2,-,N/A,,Clear,220,2012-10-25 16:55:00
12:15 PM,80.6,55.4,42,29.90,10.0,South,9.2,-,N/A,,Clear,180,2012-10-25 17:15:00
12:35 PM,80.6,55.4,42,29.90,10.0,South,12.7,20.7,N/A,,Clear,180,2012-10-25 17:35:00
12:55 PM,82.4,57.2,42,29.89,10.0,South,9.2,17.3,N/A,,Clear,190,2012-10-25 17:55:00
1:15 PM,82.4,55.4,39,29.89,10.0,South,9.2,-,N/A,,Clear,190,2012-10-25 18:15:00
1:35 PM,82.4,55.4,39,29.88,10.0,SW,11.5,-,N/A,,Clear,220,2012-10-25 18:35:00
1:55 PM,82.4,55.4,39,29.88,10.0,South,5.8,-,N/A,,Clear,190,2012-10-25 18:55:00
2:15 PM,82.4,57.2,42,29.88,10.0,West,8.1,-,N/A,,Clear,270,2012-10-25 19:15:00
2:35 PM,82.4,57.2,42,29.87,10.0,SW,5.8,-,N/A,,Scattered Clouds,220,2012-10-25 19:35:00
2:55 PM,82.4,57.2,42,29.87,10.0,South,4.6,-,N/A,,Mostly Cloudy,190,2012-10-25 19:55:00
3:15 PM,82.4,57.2,42,29.87,10.0,South,3.5,-,N/A,,Overcast,170,2012-10-25 20:15:00
3:35 PM,82.4,57.2,42,29.86,10.0,WSW,4.6,-,N/A,,Scattered Clouds,240,2012-10-25 20:35:00
3:55 PM,82.4,55.4,39,29.86,10.0,Calm,Calm,-,N/A,,Mostly Cloudy,0,2012-10-25 20:55:00
4:15 PM,82.4,57.2,42,29.86,10.0,ESE,3.5,-,N/A,,Mostly Cloudy,110,2012-10-25 21:15:00
4:35 PM,82.4,57.2,42,29.87,10.0,Calm,Calm,-,N/A,,Overcast,0,2012-10-25 21:35:00
4:55 PM,77.0,57.2,50,29.88,10.0,NNW,13.8,20.7,N/A,,Overcast,340,2012-10-25 21:55:00
5:15 PM,75.2,55.4,50,29.89,10.0,North,15.0,21.9,N/A,,Overcast,350,2012-10-25 22:15:00
5:35 PM,73.4,53.6,50,29.90,10.0,North,16.1,23.0,N/A,,Overcast,350,2012-10-25 22:35:00
5:55 PM,69.8,51.8,53,29.91,10.0,North,15.0,25.3,N/A,,Overcast,350,2012-10-25 22:55:00
6:15 PM,69.8,51.8,53,29.91,10.0,North,13.8,21.9,N/A,,Scattered Clouds,360,2012-10-25 23:15:00
6:35 PM,69.8,51.8,53,29.93,10.0,North,13.8,23.0,N/A,,Mostly Cloudy,360,2012-10-25 23:35:00
6:55 PM,68.0,50.0,52,29.94,10.0,North,12.7,18.4,N/A,,Scattered Clouds,360,2012-10-25 23:55:00
7:15 PM,64.4,48.2,56,29.95,10.0,North,10.4,19.6,N/A,,Mostly Cloudy,360,2012-10-26 00:15:00
7:35 PM,64.4,48.2,56,29.97,10.0,North,10.4,20.7,N/A,,Overcast,360,2012-10-26 00:35:00
7:55 PM,62.6,46.4,55,29.98,10.0,North,13.8,21.9,N/A,,Mostly Cloudy,10,2012-10-26 00:55:00
8:15 PM,60.8,46.4,59,29.99,10.0,North,9.2,16.1,N/A,,Mostly Cloudy,350,2012-10-26 01:15:00
8:35 PM,60.8,46.4,59,30.01,10.0,North,8.1,-,N/A,,Overcast,350,2012-10-26 01:35:00
8:55 PM,60.8,44.6,55,30.01,10.0,North,11.5,20.7,N/A,,Overcast,360,2012-10-26 01:55:00
9:15 PM,60.8,44.6,55,30.02,10.0,North,9.2,18.4,N/A,,Overcast,360,2012-10-26 02:15:00
9:35 PM,60.8,44.6,55,30.02,10.0,North,13.8,21.9,N/A,,Overcast,10,2012-10-26 02:35:00
9:55 PM,60.8,42.8,52,30.03,10.0,North,15.0,23.0,N/A,,Overcast,360,2012-10-26 02:55:00
10:15 PM,60.8,42.8,52,30.04,10.0,North,16.1,21.9,N/A,,Overcast,360,2012-10-26 03:15:00
10:55 PM,60.8,42.8,52,30.05,10.0,North,11.5,18.4,N/A,,Overcast,360,2012-10-26 03:55:00
11:15 PM,59.0,41.0,51,30.06,10.0,North,11.5,19.6,N/A,,Overcast,350,2012-10-26 04:15:00
11:35 PM,59.0,41.0,51,30.06,10.0,North,10.4,18.4,N/A,,Overcast,360,2012-10-26 04:35:00
11:55 PM,57.2,39.2,51,30.06,10.0,North,12.7,18.4,N/A,,Overcast,360,2012-10-26 04:55:00